Location: Brno
(49.2000°N, 16.6330°E)
Time: 15:21:19
(UTC+02:00)

Transit 2A Rocket - All Passes

Search period start: 02 August 2021 00:00
Search period end: 12 August 2021 00:00
Orbit: 589 x 913 km, 66.7° (Epoch: 02 August)

Date Brightness Start Highest point End Pass type
(mag) Time Alt. Az. Time Alt. Az. Time Alt. Az.
02 Aug - 00:32:06 10° NW 00:36:49 28° WSW 00:41:46 10° S visible
02 Aug - 13:30:42 10° SE 13:33:05 14° ESE 13:35:32 10° ENE daylight
02 Aug - 15:10:19 10° SW 15:14:49 84° NW 15:19:44 10° NE daylight
02 Aug - 16:54:40 10° W 16:58:12 21° NNW 17:01:58 10° NNE daylight
02 Aug - 18:41:18 10° NNW 18:42:51 11° N 18:44:26 10° NNE daylight
02 Aug - 20:24:34 10° NNW 20:27:44 16° NNE 20:31:02 10° ENE daylight
02 Aug - 22:06:31 10° NNW 22:11:41 43° NE 22:17:13 10° ESE visible
02 Aug - 23:49:07 10° NW 23:54:21 44° WSW 23:59:57 10° S visible
03 Aug - 14:27:50 10° SSW 14:32:14 59° ESE 14:37:01 10° NE daylight
03 Aug - 16:11:11 10° W 16:15:11 28° NW 16:19:29 10° NNE daylight
03 Aug - 17:57:33 10° NW 17:59:33 12° NNW 18:01:38 10° NNE daylight
03 Aug - 19:42:02 10° NNW 19:44:30 13° NNE 19:47:03 10° NE daylight
03 Aug - 21:24:00 10° NNW 21:28:47 31° NE 21:33:52 10° E visible
03 Aug - 23:06:19 10° NW 23:11:48 69° WSW 23:17:42 10° SSE visible
04 Aug - 00:51:04 10° WNW 00:53:35 13° WSW 00:56:10 10° SW visible
04 Aug - 13:45:44 10° S 13:49:46 34° ESE 13:54:07 10° NE daylight
04 Aug - 15:27:57 10° WSW 15:32:15 40° NW 15:36:57 10° NNE daylight
04 Aug - 17:13:40 10° NW 17:16:18 14° NNW 17:19:03 10° NNE daylight
04 Aug - 18:59:21 10° NNW 19:01:13 12° N 19:03:09 10° NNE daylight
04 Aug - 20:41:32 10° NNW 20:45:47 23° NNE 20:50:19 10° E daylight
04 Aug - 22:23:39 10° NW 22:29:10 80° NE 22:35:06 10° SE visible
05 Aug - 00:07:08 10° WNW 00:11:18 21° WSW 00:15:38 10° SSW visible
05 Aug - 13:04:08 10° SSE 13:07:26 20° ESE 13:10:55 10° ENE daylight
05 Aug - 14:44:58 10° SW 14:49:27 62° NW 14:54:23 10° NNE daylight
05 Aug - 16:29:53 10° WNW 16:33:07 18° NNW 16:36:33 10° NNE daylight
05 Aug - 18:16:19 10° NNW 18:17:54 11° N 18:19:31 10° NNE daylight
05 Aug - 19:59:03 10° NNW 20:02:42 18° NNE 20:06:31 10° ENE daylight
05 Aug - 21:41:04 10° NNW 21:46:26 55° NE 21:52:12 10° SE visible
05 Aug - 23:23:56 10° NW 23:28:54 33° WSW 23:34:09 10° S visible
06 Aug - 12:23:39 10° ESE 12:25:13 12° ESE 12:26:47 10° E daylight
06 Aug - 14:02:17 10° SSW 14:06:47 82° ESE 14:11:44 10° NE daylight
06 Aug - 15:46:16 10° W 15:50:02 23° NNW 15:54:04 10° NNE daylight
06 Aug - 17:32:49 10° NNW 17:34:35 12° N 17:36:25 10° NNE daylight
06 Aug - 19:16:32 10° NNW 19:19:31 15° NNE 19:22:37 10° NE daylight
06 Aug - 20:58:32 10° NNW 21:03:36 38° NE 21:09:02 10° ESE visible
06 Aug - 22:41:00 10° NW 22:46:24 52° WSW 22:52:09 10° SSE visible
07 Aug - 13:19:55 10° SSW 13:24:15 49° ESE 13:28:57 10° NE daylight
07 Aug - 15:02:52 10° WSW 15:07:02 32° NW 15:11:33 10° NNE daylight
07 Aug - 16:49:00 10° NW 16:51:18 13° NNW 16:53:42 10° NNE daylight
07 Aug - 18:33:57 10° NNW 18:36:16 13° NNE 18:38:39 10° NE daylight
07 Aug - 20:16:01 10° NNW 20:20:40 28° NE 20:25:37 10° E daylight
07 Aug - 21:58:16 10° NW 22:03:50 80° SW 22:09:46 10° SSE visible
07 Aug - 23:42:25 10° WNW 23:45:43 16° WSW 23:49:09 10° SW visible
08 Aug - 12:37:58 10° S 12:41:50 29° ESE 12:45:58 10° NE daylight
08 Aug - 14:19:44 10° WSW 14:24:09 46° NW 14:29:00 10° NNE daylight
08 Aug - 16:05:10 10° WNW 16:08:05 16° NNW 16:11:08 10° NNE daylight
08 Aug - 17:51:09 10° NNW 17:52:58 12° N 17:54:50 10° NNE daylight
08 Aug - 19:33:32 10° NNW 19:37:37 21° NNE 19:41:57 10° E daylight
08 Aug - 21:15:38 10° NNW 21:21:09 70° NE 21:27:04 10° SE visible
08 Aug - 22:58:50 10° WNW 23:03:23 25° WSW 23:08:09 10° SSW visible
09 Aug - 11:56:37 10° SSE 11:59:32 17° ESE 12:02:35 10° ENE daylight
09 Aug - 13:36:51 10° SW 13:41:24 73° NW 13:46:24 10° NNE daylight
09 Aug - 15:21:26 10° WNW 15:24:56 20° NNW 15:28:38 10° NNE daylight
09 Aug - 17:07:56 10° NNW 17:09:38 11° N 17:11:23 10° NNE daylight
09 Aug - 18:51:02 10° NNW 18:54:30 17° NNE 18:58:08 10° ENE daylight
09 Aug - 20:33:03 10° NNW 20:38:23 48° NE 20:44:04 10° ESE daylight
09 Aug - 22:15:46 10° NW 22:20:58 39° WSW 22:26:28 10° S visible
10 Aug - 12:54:17 10° SSW 12:58:46 69° ESE 13:03:42 10° NE daylight
10 Aug - 14:37:54 10° W 14:41:52 26° NW 14:46:08 10° NNE daylight
10 Aug - 16:24:18 10° NNW 16:26:20 12° N 16:28:26 10° NNE daylight
10 Aug - 18:08:29 10° NNW 18:11:18 14° NNE 18:14:12 10° NE daylight
10 Aug - 19:50:32 10° NNW 19:55:30 34° NE 20:00:49 10° ESE daylight
10 Aug - 21:32:55 10° NW 21:38:27 61° WSW 21:44:19 10° SSE visible
10 Aug - 23:18:23 10° W 23:20:07 11° WSW 23:21:51 10° WSW visible
11 Aug - 12:12:03 10° S 12:16:16 40° ESE 12:20:52 10° NE daylight
11 Aug - 13:54:36 10° WSW 13:58:54 36° NW 14:03:36 10° NNE daylight
11 Aug - 15:40:28 10° NW 15:43:04 14° NNW 15:45:46 10° NNE daylight
11 Aug - 17:25:49 10° NNW 17:28:01 12° N 17:30:17 10° NE daylight
11 Aug - 19:08:01 10° NNW 19:12:32 26° NE 19:17:18 10° E daylight
11 Aug - 20:50:13 10° NW 20:55:49 89° NE 21:01:49 10° SE visible
11 Aug - 22:33:57 10° WNW 22:37:51 19° WSW 22:41:53 10° SSW visible
